Location: All Nations United Methodist Church
(33.0215°N, 96.7483°W)
Time: 14:44:32
(UTC+00:00)

SEDSat Delta rocket - Pass Details

Date: 24 January 2021
Orbit: 533 x 1000 km, 31.4° (Epoch: 06 March)

Event Time Altitude Azimuth Distance (km) Brightness Sun altitude
Exits shadow 12:31:49 10° 255° (WSW) 2,770 5.9 -11.7°
Reaches altitude 10° 12:31:53 10° 255° (WSW) 2,747 5.8 -11.7°
Maximum altitude 12:38:38 73° 172° (S) 1,035 4.2 -10.4°
Drops below altitude 10° 12:45:14 10° 88° (E) 2,685 7.7 -9.0°
Sets 12:47:49 0° 87° (E) 3,585 8.5 -8.5°
